Change the Weather History Date:

Saturday, March 16, 2013

  Actual Average Record
Temperature  
Mean Temperature 31 °F 29 °F  
Max Temperature 42 °F 40 °F 63 °F (1994)
Min Temperature 20 °F 18 °F -11 °F (1955)
Degree Days  
Heating Degree Days 34 36  
Month to date heating degree days 538 606  
Since 1 July heating degree days 6567 7281  
Cooling Degree Days 0 0  
Month to date cooling degree days 0 0  
Year to date cooling degree days 0 0  
Moisture  
Dew Point 26 °F    
Average Humidity 72    
Maximum Humidity 92    
Minimum Humidity 51    
Precipitation  
Precipitation 0.09 in 0.08 in 0.75 in (1966)
Month to date precipitation 0.64 0.97  
Year to date precipitation 4.98 4.44  
Sea Level Pressure  
Sea Level Pressure 29.92 in    
Wind  
Wind Speed 4 mph (South)    
Max Wind Speed 25 mph    
Max Gust Speed 32 mph    
Visibility 8 miles    
Events Rain , Snow    
T = Trace of Precipitation, MM = Missing Value Source: NWS Daily Summary

Daily Weather History Graph

Daily Weather History Graph

Search for Another Location

Airport or City:

Trip Planner

Search our weather history database for the weather conditions in past years. The results will help you decide how hot, cold, wet, or windy it might be!

Date:

Astronomy

Mar. 16, 2013 Rise Set
Actual Time 7:54 AM MDT 7:52 PM MDT
Civil Twilight 7:25 AM MDT 8:21 PM MDT
Nautical Twilight 6:51 AM MDT 8:55 PM MDT
Astronomical Twilight 6:16 AM MDT 9:30 PM MDT
Moon 10:13 AM MDT (3/16) 12:21 AM MDT (3/16)
Length of Visible Light 12h 56m
Length of Day
11h 57m
Waxing Crescent, 23% of the Moon is Illuminated
Mar 16
Waxing Crescent
Mar 19
First Quarter
Mar 27
Full
Apr 2
Last Quarter
Apr 10
New

Hourly Weather History & Observations

Time (MDT) Temp. Windchill Dew Point Humidity Pressure Visibility Wind Dir Wind Speed Gust Speed Precip Events Conditions
12:51 AM 30.0 °F - 25.0 °F 82% 30.09 in 10.0 mi Calm Calm - N/A   Clear
2:51 AM 25.0 °F - 21.0 °F 85% 30.09 in 10.0 mi Calm Calm - N/A   Clear
3:51 AM 25.0 °F - 21.9 °F 88% 30.09 in 10.0 mi Calm Calm - N/A   Clear
4:51 AM 21.9 °F - 19.0 °F 89% 30.08 in 10.0 mi Calm Calm - N/A   Clear
5:51 AM 23.0 °F 17.0 °F 19.9 °F 88% 30.07 in 10.0 mi ENE 4.6 mph - N/A   Clear
6:51 AM 21.9 °F - 19.0 °F 89% 30.08 in 10.0 mi Calm Calm - N/A   Clear
7:51 AM 21.0 °F - 18.0 °F 88% 30.09 in 10.0 mi Calm Calm - N/A   Clear
8:51 AM 24.1 °F - 19.9 °F 84% 30.08 in 10.0 mi Calm Calm - N/A   Clear
9:51 AM 25.0 °F - 21.9 °F 88% 30.10 in 10.0 mi Calm Calm - N/A   Clear
10:51 AM 30.0 °F 26.5 °F 24.1 °F 79% 30.07 in 10.0 mi South 3.5 mph - N/A   Clear
11:51 AM 33.1 °F - 25.0 °F 72% 30.05 in 10.0 mi Calm Calm - N/A   Clear
12:51 PM 39.0 °F - 26.1 °F 60% 30.02 in 10.0 mi Calm Calm - N/A   Overcast
1:51 PM 39.0 °F - 25.0 °F 57% 30.01 in 10.0 mi Calm Calm - N/A   Scattered Clouds
2:51 PM 41.0 °F 35.2 °F 25.0 °F 53% 29.97 in 10.0 mi SSE 9.2 mph - N/A   Scattered Clouds
3:51 PM 39.9 °F 34.5 °F 26.1 °F 58% 29.94 in 10.0 mi SSW 8.1 mph - N/A   Overcast
4:51 PM 39.9 °F 34.5 °F 26.1 °F 58% 29.93 in 10.0 mi SSE 8.1 mph - N/A   Overcast
5:51 PM 39.0 °F 32.3 °F 27.0 °F 62% 29.89 in 10.0 mi South 10.4 mph - N/A   Overcast
6:51 PM 39.0 °F 33.4 °F 27.0 °F 62% 29.86 in 10.0 mi SSW 8.1 mph - N/A   Overcast
7:51 PM 37.0 °F 29.3 °F 30.0 °F 76% 29.86 in 10.0 mi South 11.5 mph - 0.00 in Rain Light Rain
8:08 PM 37.4 °F 30.3 °F 30.2 °F 75% 29.78 in 10.0 mi SSE 10.4 mph - 0.00 in Rain Light Rain
8:51 PM 37.9 °F 27.9 °F 26.1 °F 62% 29.84 in 10.0 mi South 19.6 mph 26.5 mph 0.00 in   Overcast
9:16 PM 37.4 °F 28.9 °F 26.6 °F 65% 29.77 in 9.0 mi South 13.8 mph 25.3 mph 0.00 in Snow Light Snow
9:43 PM 33.8 °F 30.8 °F 30.2 °F 87% 29.77 in 4.0 mi SW 3.5 mph - 0.01 in Snow Light Snow
9:51 PM 33.1 °F 30.0 °F 30.9 °F 92% 29.85 in 3.0 mi South 3.5 mph - 0.01 in Snow Light Snow
10:08 PM 32.0 °F 28.7 °F 30.2 °F 93% 29.77 in 2.0 mi SSE 3.5 mph - 0.02 in Snow Light Snow
10:32 PM 32.0 °F 28.7 °F 30.2 °F 93% 29.76 in 1.5 mi SSE 3.5 mph - 0.04 in Snow Light Snow
10:42 PM 32.0 °F 26.4 °F 30.2 °F 93% 29.76 in 2.5 mi South 5.8 mph - 0.04 in Snow Light Snow
10:51 PM 32.0 °F - 30.9 °F 96% 29.82 in 1.2 mi Calm Calm - 0.06 in Snow Light Snow
11:04 PM 32.0 °F 26.4 °F 30.2 °F 93% 29.76 in 1.0 mi SSW 5.8 mph - 0.01 in Snow Light Snow
11:09 PM 32.0 °F 26.4 °F 30.2 °F 93% 29.76 in 2.0 mi South 5.8 mph - 0.02 in Snow Light Snow
11:16 PM 33.8 °F 27.7 °F 30.2 °F 87% 29.76 in 4.0 mi South 6.9 mph - 0.02 in Snow Light Snow
11:27 PM 33.8 °F 24.8 °F 28.4 °F 81% 29.75 in 9.0 mi SW 12.7 mph 19.6 mph 0.02 in   Overcast
11:51 PM 34.0 °F 25.0 °F 27.0 °F 75% 29.79 in 10.0 mi West 12.7 mph 23.0 mph 0.02 in   Overcast